Location: Frankfurt+(oder)
(51.7984°N, 12.2168°E)
Time: 11:07:15
(UTC+02:00)

Tiangong 2 - Visible Passes

Search period start: 16 July 2018 00:00
Search period end: 26 July 2018 00:00
Orbit: 386 x 394 km, 42.8° (Epoch: 15 July)

Date Brightness Start Highest point End Pass type
(mag) Time Alt. Az. Time Alt. Az. Time Alt. Az.
16 Jul 2.9 22:06:20 10° SW 22:08:25 16° S 22:10:30 10° SE visible
16 Jul 3.6 23:42:57 10° SW 23:43:13 11° SW 23:43:13 11° SW visible
17 Jul 3.0 22:45:09 10° SW 22:47:07 15° S 22:48:00 14° S visible
19 Jul 3.3 22:26:48 10° SW 22:28:18 13° SSW 22:29:45 10° SSE visible
